• In Hungary
  • List of Countries
  • For 7 days
  • Water Temperature
  • Satellite Maps
  • Weather Map
  • News
  • Weather Widgets
  • user-avatar
    Login

    Hourly Weather Matrah

    Today, 17 July, Tuesday

    Time Temperature Precipitation Wind Pressure Humidity
    00:00 +40°C° 0 mm 1 mps 743 mmHg 35%
    01:00 +40°C° 0 mm 1 mps 743 mmHg 35%
    02:00 +39°C° 0 mm 1 mps 743 mmHg 37%
    03:00 +38°C° 0 mm 2 mps 743 mmHg 40%
    04:00 +37°C° 0 mm 3 mps 743 mmHg 47%
    05:00 +37°C° 0 mm 3 mps 743 mmHg 48%
    06:00 +37°C° 0 mm 3 mps 744 mmHg 48%
    07:00 +37°C° 0 mm 2 mps 744 mmHg 49%
    08:00 +39°C° 0 mm 3 mps 744 mmHg 44%
    09:00 +40°C° 0 mm 3 mps 744 mmHg 38%
    10:00 +43°C° 0 mm 4 mps 744 mmHg 28%
    11:00 +44°C° 0 mm 4 mps 744 mmHg 27%
    12:00 +45°C° 0 mm 4 mps 744 mmHg 26%
    13:00 +45°C° 0 mm 4 mps 744 mmHg 25%
    14:00 +45°C° 0 mm 4 mps 743 mmHg 26%
    15:00 +45°C° 0 mm 4 mps 743 mmHg 27%
    16:00 +44°C° 0 mm 4 mps 743 mmHg 28%
    17:00 +43°C° 0 mm 4 mps 743 mmHg 29%
    18:00 +42°C° 0 mm 3 mps 743 mmHg 31%
    19:00 +42°C° 0 mm 3 mps 743 mmHg 33%
    20:00 +40°C° 0 mm 2 mps 744 mmHg 32%
    21:00 +40°C° 0 mm 2 mps 744 mmHg 31%
    22:00 +40°C° 0 mm 1 mps 745 mmHg 30%
    23:00 +40°C° 0 mm 1 mps 745 mmHg 32%

    Tomorrow, 18 July, Wednesday

    Time Temperature Precipitation Wind Pressure Humidity
    00:00 +39°C° 0 mm 2 mps 745 mmHg 33%
    01:00 +38°C° 0 mm 2 mps 745 mmHg 34%
    02:00 +38°C° 0 mm 2 mps 745 mmHg 38%
    03:00 +37°C° 0 mm 2 mps 745 mmHg 41%
    04:00 +36°C° 0 mm 3 mps 745 mmHg 45%
    05:00 +37°C° 0 mm 2 mps 745 mmHg 44%
    06:00 +37°C° 0 mm 2 mps 745 mmHg 43%
    07:00 +37°C° 0 mm 2 mps 746 mmHg 42%
    08:00 +39°C° 0 mm 2 mps 746 mmHg 37%
    09:00 +42°C° 0 mm 3 mps 746 mmHg 31%
    10:00 +43°C° 0 mm 3 mps 746 mmHg 26%
    11:00 +44°C° 0 mm 3 mps 746 mmHg 25%
    12:00 +44°C° 0 mm 4 mps 745 mmHg 24%
    13:00 +45°C° 0 mm 4 mps 745 mmHg 23%
    14:00 +45°C° 0 mm 4 mps 745 mmHg 23%
    15:00 +44°C° 0 mm 4 mps 745 mmHg 24%
    16:00 +44°C° 0 mm 4 mps 744 mmHg 25%
    17:00 +43°C° 0 mm 3 mps 744 mmHg 25%
    18:00 +42°C° 0 mm 3 mps 745 mmHg 26%
    19:00 +41°C° 0 mm 2 mps 745 mmHg 27%
    20:00 +40°C° 0 mm 1 mps 745 mmHg 28%
    21:00 +40°C° 0 mm 1 mps 746 mmHg 28%
    22:00 +37°C° 0 mm 0 mps 746 mmHg 29%
    23:00 +39°C° 0 mm 1 mps 746 mmHg 31%

    Day after tomorrow, 19 July, Thursday

    Time Temperature Precipitation Wind Pressure Humidity
    00:00 +39°C° 0 mm 2 mps 746 mmHg 33%
    01:00 +38°C° 0 mm 2 mps 745 mmHg 35%
    02:00 +37°C° 0 mm 2 mps 745 mmHg 37%
    03:00 +36°C° 0 mm 1 mps 745 mmHg 40%
    04:00 +35°C° 0 mm 1 mps 745 mmHg 42%
    05:00 +36°C° 0 mm 1 mps 745 mmHg 41%
    06:00 +37°C° 0 mm 2 mps 746 mmHg 41%
    07:00 +37°C° 0 mm 2 mps 746 mmHg 40%
    08:00 +39°C° 0 mm 2 mps 746 mmHg 36%
    09:00 +40°C° 0 mm 2 mps 746 mmHg 32%
    10:00 +43°C° 0 mm 3 mps 747 mmHg 28%
    11:00 +43°C° 0 mm 2 mps 746 mmHg 24%
    12:00 +45°C° 0 mm 2 mps 746 mmHg 20%
    13:00 +46°C° 0 mm 2 mps 745 mmHg 17%
    14:00 +46°C° 0 mm 2 mps 745 mmHg 17%
    15:00 +45°C° 0 mm 3 mps 744 mmHg 17%
    16:00 +45°C° 0 mm 3 mps 744 mmHg 18%
    17:00 +43°C° 0 mm 2 mps 744 mmHg 19%
    18:00 +43°C° 0 mm 2 mps 744 mmHg 20%
    19:00 +42°C° 0 mm 2 mps 744 mmHg 22%
    20:00 +41°C° 0 mm 2 mps 744 mmHg 22%
    21:00 +41°C° 0 mm 2 mps 745 mmHg 22%
    22:00 +41°C° 0 mm 2 mps 745 mmHg 22%
    23:00 +41°C° 0 mm 2 mps 745 mmHg 22%

    20 July, Friday

    Time Temperature Precipitation Wind Pressure Humidity
    00:00 +40°C° 0 mm 2 mps 745 mmHg 22%
    01:00 +40°C° 0 mm 1 mps 744 mmHg 22%
    02:00 +39°C° 0 mm 1 mps 744 mmHg 24%
    03:00 +37°C° 0 mm 1 mps 744 mmHg 26%
    04:00 +36°C° 0 mm 1 mps 744 mmHg 28%
    05:00 +37°C° 0 mm 1 mps 744 mmHg 28%
    06:00 +39°C° 0 mm 1 mps 744 mmHg 28%
    07:00 +39°C° 0 mm 1 mps 745 mmHg 27%
    08:00 +41°C° 0 mm 1 mps 745 mmHg 24%
    09:00 +43°C° 0 mm 1 mps 745 mmHg 21%
    10:00 +44°C° 0 mm 1 mps 745 mmHg 18%
    11:00 +46°C° 0 mm 2 mps 745 mmHg 17%
    12:00 +47°C° 0 mm 3 mps 744 mmHg 16%
    13:00 +48°C° 0 mm 3 mps 744 mmHg 15%
    14:00 +47°C° 0 mm 3 mps 743 mmHg 16%
    15:00 +47°C° 0 mm 3 mps 743 mmHg 17%
    16:00 +46°C° 0 mm 3 mps 742 mmHg 18%
    17:00 +46°C° 0 mm 2 mps 742 mmHg 19%
    18:00 +45°C° 0 mm 2 mps 743 mmHg 20%
    19:00 +43°C° 0 mm 1 mps 743 mmHg 21%
    20:00 +43°C° 0 mm 2 mps 743 mmHg 21%
    21:00 +42°C° 0 mm 2 mps 743 mmHg 20%
    22:00 +42°C° 0 mm 2 mps 744 mmHg 20%
    23:00 +42°C° 0 mm 2 mps 743 mmHg 21%

    21 July, Saturday

    Time Temperature Precipitation Wind Pressure Humidity
    00:00 +41°C° 0 mm 2 mps 743 mmHg 22%
    01:00 +41°C° 0 mm 2 mps 743 mmHg 23%
    02:00 +40°C° 0 mm 2 mps 743 mmHg 24%
    03:00 +39°C° 0 mm 2 mps 742 mmHg 26%
    04:00 +39°C° 0 mm 2 mps 742 mmHg 28%
    05:00 +39°C° 0 mm 2 mps 743 mmHg 28%
    06:00 +40°C° 0 mm 1 mps 743 mmHg 27%
    07:00 +40°C° 0 mm 1 mps 744 mmHg 27%
    08:00 +42°C° 0 mm 1 mps 744 mmHg 24%
    09:00 +43°C° 0 mm 1 mps 744 mmHg 20%
    10:00 +46°C° 0 mm 2 mps 744 mmHg 17%
    11:00 +47°C° 0 mm 2 mps 744 mmHg 15%
    12:00 +48°C° 0 mm 3 mps 743 mmHg 14%
    13:00 +50°C° 0 mm 4 mps 743 mmHg 12%
    14:00 +50°C° 0 mm 4 mps 743 mmHg 14%
    15:00 +49°C° 0 mm 4 mps 742 mmHg 15%
    16:00 +49°C° 0 mm 4 mps 742 mmHg 16%
    17:00 +47°C° 0 mm 3 mps 742 mmHg 17%
    18:00 +46°C° 0 mm 3 mps 742 mmHg 18%
    19:00 +45°C° 0 mm 3 mps 742 mmHg 19%
    20:00 +45°C° 0 mm 2 mps 743 mmHg 19%
    21:00 +43°C° 0 mm 2 mps 743 mmHg 19%
    22:00 +43°C° 0 mm 2 mps 743 mmHg 19%
    23:00 +42°C° 0 mm 2 mps 743 mmHg 20%

    22 July, Sunday

    Time Temperature Precipitation Wind Pressure Humidity
    00:00 +42°C° 0 mm 2 mps 743 mmHg 21%
    01:00 +42°C° 0 mm 2 mps 743 mmHg 22%
    02:00 +41°C° 0 mm 2 mps 743 mmHg 26%
    03:00 +40°C° 0 mm 3 mps 743 mmHg 29%
    04:00 +39°C° 0 mm 3 mps 743 mmHg 33%
    05:00 +39°C° 0 mm 3 mps 743 mmHg 33%
    06:00 +39°C° 0 mm 3 mps 743 mmHg 34%
    07:00 +39°C° 0 mm 3 mps 744 mmHg 34%
    08:00 +42°C° 0 mm 3 mps 744 mmHg 30%
    09:00 +42°C° 0 mm 2 mps 744 mmHg 26%
    10:00 +45°C° 0 mm 2 mps 744 mmHg 23%
    11:00 +46°C° 0 mm 3 mps 744 mmHg 21%
    12:00 +47°C° 0 mm 3 mps 743 mmHg 20%
    13:00 +49°C° 0 mm 4 mps 743 mmHg 18%
    14:00 +49°C° 0 mm 4 mps 742 mmHg 19%
    15:00 +49°C° 0 mm 4 mps 742 mmHg 19%
    16:00 +49°C° 0 mm 4 mps 741 mmHg 19%
    17:00 +48°C° 0 mm 4 mps 742 mmHg 20%
    18:00 +47°C° 0 mm 4 mps 742 mmHg 22%
    19:00 +45°C° 0 mm 3 mps 742 mmHg 23%
    20:00 +45°C° 0 mm 3 mps 742 mmHg 23%
    21:00 +44°C° 0 mm 3 mps 742 mmHg 24%
    22:00 +44°C° 0 mm 3 mps 743 mmHg 24%
    23:00 +43°C° 0 mm 2 mps 742 mmHg 25%
    Show more